DW7379 Weather Reports


Display with metric or nautical units.
time (UTC)temp
F
wind
direction
speed
MPH
gust
MPH
rain 1hr
in
rain 24hr
in
rain mn
in
humidity
%
barometer
mb
20260507181904 57 113 4.0 7.0 0.00 0.00 0.00 71 1015.2
20260507181404 57 114 5.0 8.0 0.00 0.00 0.00 70 1015.2
20260507180904 58 104 5.0 9.0 0.00 0.00 0.00 70 1015.1
20260507175904 58 98 4.0 7.0 0.00 0.00 0.00 71 1015.2
20260507175405 58 111 5.0 8.0 0.00 0.00 0.00 70 1015.2
20260507174903 58 114 4.0 8.0 0.00 0.00 0.00 70 1015.1
20260507174404 58 110 6.0 8.0 0.00 0.00 0.00 69 1015.1
20260507173403 59 129 5.0 9.0 0.00 0.00 0.00 69 1015.2
20260507172903 59 104 5.0 10.0 0.00 0.00 0.00 68 1015.2
20260507172403 59 109 5.0 9.0 0.00 0.00 0.00 67 1015.3
20260507171905 60 123 4.0 7.0 0.00 0.00 0.00 67 1015.3
20260507170904 60 133 3.0 9.0 0.00 0.00 0.00 68 1015.3
20260507170404 60 128 5.0 8.0 0.00 0.00 0.00 67 1015.3
20260507165903 60 122 5.0 9.0 0.00 0.00 0.00 67 1015.3
20260507165403 60 112 5.0 9.0 0.00 0.00 0.00 66 1015.3
20260507164904 60 133 6.0 10.0 0.00 0.00 0.00 67 1015.4
20260507164404 60 131 6.0 9.0 0.00 0.00 0.00 67 1015.4
20260507163903 60 115 6.0 9.0 0.00 0.00 0.00 68 1015.4
20260507163403 60 117 6.0 10.0 0.00 0.00 0.00 67 1015.4
20260507162904 60 127 6.0 10.0 0.00 0.00 0.00 67 1015.4
20260507161904 60 115 8.0 12.0 0.00 0.00 0.00 66 1015.3
20260507161404 60 122 5.0 12.0 0.00 0.00 0.00 67 1015.4
20260507160904 60 116 6.0 12.0 0.00 0.00 0.00 67 1015.4
20260507160403 60 121 7.0 12.0 0.00 0.00 0.00 66 1015.4
20260507155903 61 131 6.0 12.0 0.00 0.00 0.00 66 1015.5
20260507155404 61 121 6.0 12.0 0.00 0.00 0.00 66 1015.4
20260507154905 61 125 7.0 12.0 0.00 0.00 0.00 65 1015.5
20260507153904 61 128 6.0 12.0 0.00 0.00 0.00 65 1015.4
20260507153403 61 114 8.0 12.0 0.00 0.00 0.00 64 1015.5
20260507152904 61 110 7.0 12.0 0.00 0.00 0.00 64 1015.5
20260507152403 61 113 7.0 12.0 0.00 0.00 0.00 64 1015.6
20260507151903 61 116 8.0 12.0 0.00 0.00 0.00 63 1015.6
20260507150905 62 121 7.0 12.0 0.00 0.00 0.00 64 1015.6
20260507150404 62 103 7.0 12.0 0.00 0.00 0.00 64 1015.6
20260507145904 62 116 6.0 10.0 0.00 0.00 0.00 64 1015.6
20260507145404 62 131 7.0 12.0 0.00 0.00 0.00 63 1015.6
20260507144904 62 124 6.0 10.0 0.00 0.00 0.00 63 1015.6
20260507144404 62 125 6.0 10.0 0.00 0.00 0.00 63 1015.7
20260507143904 62 131 6.0 12.0 0.00 0.00 0.00 63 1015.7
20260507142903 62 129 7.0 12.0 0.00 0.00 0.00 63 1015.8
20260507142405 62 128 6.0 9.0 0.00 0.00 0.00 63 1015.8
20260507141903 62 134 7.0 10.0 0.00 0.00 0.00 64 1015.9
20260507141403 62 123 8.0 12.0 0.00 0.00 0.00 64 1015.9
20260507140904 62 128 7.0 10.0 0.00 0.00 0.00 63 1015.9
20260507135904 62 135 7.0 12.0 0.00 0.00 0.00 63 1015.9
20260507135403 62 130 5.0 12.0 0.00 0.00 0.00 62 1015.9
20260507134903 62 117 7.0 12.0 0.00 0.00 0.00 63 1015.9
20260507134403 62 112 7.0 12.0 0.00 0.00 0.00 64 1015.9
20260507133903 62 141 8.0 12.0 0.00 0.00 0.00 61 1015.9
20260507133405 62 143 6.0 12.0 0.00 0.00 0.00 64 1015.9
20260507131906 62 132 6.0 12.0 0.00 0.00 0.00 62 1015.8
20260507130405 61 141 7.0 12.0 0.00 0.00 0.00 63 1016.0
20260507125903 61 134 6.0 12.0 0.00 0.00 0.00 66 1016.0
20260507125404 61 143 7.0 12.0 0.00 0.00 0.00 67 1016.0
20260507124904 61 132 7.0 12.0 0.00 0.00 0.00 65 1016.0
20260507123904 61 136 9.0 12.0 0.00 0.00 0.00 66 1016.0
20260507123404 61 135 7.0 12.0 0.00 0.00 0.00 64 1016.0
20260507122904 61 149 9.0 14.0 0.00 0.00 0.00 65 1016.0
20260507122403 61 142 6.0 12.0 0.00 0.00 0.00 65 1016.1
20260507120903 61 134 9.0 13.0 0.00 0.00 0.00 65 1016.2
20260507120403 61 150 9.0 14.0 0.00 0.00 0.00 66 1016.2
20260507115904 60 131 7.0 12.0 0.00 0.00 0.00 66 1016.2
20260507115404 60 135 6.0 12.0 0.00 0.00 0.00 66 1016.2
20260507114904 61 146 6.0 13.0 0.00 0.00 0.00 66 1016.1
20260507114404 61 132 7.0 12.0 0.00 0.00 0.00 64 1016.1
20260507113904 62 149 6.0 14.0 0.00 0.00 0.00 64 1016.1
20260507113404 62 139 8.0 13.0 0.00 0.00 0.00 64 1016.1
20260507112404 62 121 6.0 12.0 0.00 0.00 0.00 65 1016.2
20260507111904 61 145 6.0 13.0 0.00 0.00 0.00 65 1016.2
20260507111404 61 130 5.0 12.0 0.00 0.00 0.00 67 1016.2
20260507110905 61 137 7.0 12.0 0.00 0.00 0.00 65 1016.2
20260507105904 61 144 6.0 12.0 0.00 0.00 0.00 65 1016.3
20260507105404 61 137 6.0 12.0 0.00 0.00 0.00 65 1016.3
20260507104903 61 141 6.0 10.0 0.00 0.00 0.00 67 1016.3
20260507104404 61 147 6.0 12.0 0.00 0.00 0.00 67 1016.3
20260507103903 61 131 6.0 12.0 0.00 0.00 0.00 66 1016.4
20260507102903 61 138 6.0 12.0 0.00 0.00 0.00 66 1016.3
20260507102404 61 128 6.0 12.0 0.00 0.00 0.00 66 1016.3
20260507101904 61 118 7.0 12.0 0.00 0.00 0.00 66 1016.4
20260507100903 61 117 7.0 12.0 0.00 0.00 0.00 67 1016.4
20260507100404 60 121 6.0 12.0 0.00 0.00 0.00 68 1016.3
20260507095904 60 124 7.0 12.0 0.00 0.00 0.00 67 1016.3
20260507094904 60 117 7.0 12.0 0.00 0.00 0.00 68 1016.3
20260507094405 60 110 6.0 10.0 0.00 0.00 0.00 69 1016.4
20260507093403 59 127 7.0 12.0 0.00 0.00 0.00 71 1016.4
20260507092904 58 147 5.0 10.0 0.00 0.00 0.00 71 1016.4
20260507092404 58 139 7.0 12.0 0.00 0.00 0.00 72 1016.5
20260507091904 58 142 6.0 9.0 0.00 0.00 0.00 72 1016.5
20260507090903 58 129 5.0 9.0 0.00 0.00 0.00 71 1016.4
20260507090405 58 132 6.0 10.0 0.00 0.00 0.00 70 1016.4
20260507085904 59 148 6.0 12.0 0.00 0.00 0.00 69 1016.4
20260507085403 59 131 4.0 10.0 0.00 0.00 0.00 70 1016.4
20260507084405 58 119 5.0 12.0 0.00 0.00 0.00 70 1016.3
20260507083905 58 125 7.0 12.0 0.00 0.00 0.00 70 1016.3
20260507083404 58 113 6.0 12.0 0.00 0.00 0.00 71 1016.3
20260507082904 57 106 7.0 12.0 0.00 0.00 0.00 73 1016.1
20260507082404 57 100 7.0 13.0 0.00 0.00 0.00 74 1016.1
20260507081904 57 98 6.0 12.0 0.00 0.00 0.00 74 1016.0
20260507080404 57 88 7.0 12.0 0.00 0.00 0.00 75 1016.0
20260507075903 56 112 7.0 12.0 0.00 0.00 0.00 75 1016.0
20260507075404 56 109 7.0 12.0 0.00 0.00 0.00 75 1016.0
20260507074903 56 111 5.0 12.0 0.00 0.00 0.00 75 1015.9
20260507074404 56 112 4.0 9.0 0.00 0.00 0.00 75 1016.0
20260507073904 55 99 5.0 10.0 0.00 0.00 0.00 75 1016.0
20260507073404 55 105 6.0 10.0 0.00 0.00 0.00 75 1016.0
20260507072905 55 109 6.0 12.0 0.00 0.00 0.00 75 1016.0
20260507072405 55 98 6.0 10.0 0.00 0.00 0.00 75 1016.0
20260507071903 55 112 6.0 10.0 0.00 0.00 0.00 75 1016.0
20260507071404 54 95 6.0 12.0 0.00 0.00 0.00 75 1016.0
20260507070904 54 110 6.0 10.0 0.00 0.00 0.00 75 1016.0
20260507070403 54 83 5.0 9.0 0.00 0.00 0.00 75 1015.9
20260507065904 53 100 4.0 9.0 0.00 0.00 0.00 75 1015.9
20260507065404 53 104 5.0 10.0 0.00 0.00 0.00 76 1015.9
20260507064905 53 97 6.0 9.0 0.00 0.00 0.00 76 1015.8
20260507064404 53 88 6.0 9.0 0.00 0.00 0.00 76 1015.8
20260507063903 52 92 2.0 8.0 0.00 0.00 0.00 77 1015.8
20260507063404 52 97 4.0 8.0 0.00 0.00 0.00 78 1015.9
20260507062403 51 95 2.0 5.0 0.00 0.00 0.00 80 1015.8
20260507061903 51 63 3.0 5.0 0.00 0.00 0.00 80 1015.8
20260507061405 50 62 2.0 7.0 0.00 0.00 0.00 81 1015.8
20260507060905 50 74 2.0 3.0 0.00 0.00 0.00 82 1015.7
20260507060403 49 98 2.0 3.0 0.00 0.00 0.00 82 1015.7
20260507055904 49 99 3.0 8.0 0.00 0.00 0.00 81 1015.6
20260507055404 49 88 3.0 5.0 0.00 0.00 0.00 82 1015.6
20260507054904 48 80 2.0 6.0 0.00 0.00 0.00 82 1015.6
20260507054406 48 72 2.0 3.0 0.00 0.00 0.00 82 1015.6
20260507053903 48 76 1.0 3.0 0.00 0.00 0.00 82 1015.5
20260507053404 48 59 1.0 3.0 0.00 0.00 0.00 82 1015.5
20260507052904 47 71 1.0 5.0 0.00 0.00 0.00 83 1015.5
20260507052403 47 49 2.0 3.0 0.00 0.00 0.00 83 1015.5
20260507051904 47 52 2.0 5.0 0.00 0.00 0.00 83 1015.4
20260507051406 47 62 1.0 5.0 0.00 0.00 0.00 84 1015.4
20260507050903 46 59 3.0 3.0 0.00 0.00 0.00 84 1015.4
20260507050404 46 63 2.0 6.0 0.00 0.00 0.00 84 1015.4
20260507045903 46 56 1.0 3.0 0.00 0.00 0.00 85 1015.3
20260507045404 45 68 1.0 3.0 0.00 0.00 0.00 84 1015.3
20260507044904 45 62 1.0 3.0 0.00 0.00 0.00 84 1015.3
20260507044405 45 62 1.0 2.0 0.00 0.00 0.00 84 1015.3
20260507043904 45 62 0.0 2.0 0.00 0.00 0.00 84 1015.3
20260507043404 45 28 1.0 3.0 0.00 0.00 0.00 84 1015.2
20260507042904 45 47 1.0 3.0 0.00 0.00 0.00 84 1015.2
20260507042404 45 54 2.0 3.0 0.00 0.00 0.00 84 1015.2
20260507041904 45 65 1.0 3.0 0.00 0.00 0.00 84 1015.2
20260507041404 45 57 1.0 3.0 0.00 0.00 0.00 84 1015.2
20260507040905 45 58 2.0 3.0 0.00 0.00 0.00 85 1015.2
20260507040403 45 56 1.0 3.0 0.00 0.00 0.00 85 1015.2
20260507035404 45 38 2.0 5.0 0.00 0.00 0.00 84 1015.2
20260507034904 45 36 1.0 2.0 0.00 0.00 0.00 84 1015.2
20260507034404 45 36 1.0 3.0 0.00 0.00 0.00 84 1015.1
20260507033903 45 36 1.0 3.0 0.00 0.00 0.00 83 1015.2
20260507032404 46 49 1.0 3.0 0.00 0.00 0.00 83 1015.0
20260507031903 46 47 2.0 3.0 0.00 0.00 0.00 83 1015.1
20260507031403 46 43 1.0 3.0 0.00 0.00 0.00 83 1015.0
20260507030904 46 51 1.0 5.0 0.00 0.00 0.00 84 1015.0
20260507030404 45 34 2.0 5.0 0.00 0.00 0.00 84 1015.1
20260507025903 45 33 2.0 5.0 0.00 0.00 0.00 84 1015.1
20260507025404 45 32 1.0 3.0 0.00 0.00 0.00 83 1015.0
20260507024404 45 34 1.0 3.0 0.00 0.00 0.00 84 1015.0
20260507023903 45 42 2.0 3.0 0.00 0.00 0.00 84 1014.9
20260507023405 45 30 2.0 3.0 0.00 0.00 0.00 85 1014.9
20260507022904 45 20 2.0 3.0 0.00 0.00 0.00 85 1014.9
20260507022404 44 46 2.0 3.0 0.00 0.00 0.00 86 1014.8
20260507021903 44 38 2.0 3.0 0.00 0.00 0.00 85 1014.9
20260507021404 44 44 2.0 3.0 0.00 0.00 0.00 85 1014.9
20260507020404 44 22 2.0 3.0 0.00 0.00 0.00 83 1014.8
20260507015904 44 46 2.0 3.0 0.00 0.00 0.00 83 1014.8
20260507015404 44 46 1.0 3.0 0.00 0.00 0.00 83 1014.8
20260507014904 44 46 1.0 3.0 0.00 0.00 0.00 83 1014.8
20260507014405 44 46 0.0 1.0 0.00 0.00 0.00 83 1014.8
20260507013404 45 46 0.0 1.0 0.00 0.00 0.00 82 1014.7
20260507012903 45 46 0.0 2.0 0.00 0.00 0.00 81 1014.7
20260507012404 45 46 0.0 0.0 0.00 0.00 0.00 81 1014.8
20260507011903 45 46 0.0 1.0 0.00 0.00 0.00 81 1014.8
20260507010903 45 46 0.0 2.0 0.00 0.00 0.00 79 1014.8
20260507010405 46 46 0.0 1.0 0.00 0.00 0.00 79 1014.8
20260507004904 46 46 0.0 1.0 0.00 0.00 0.00 78 1014.9
20260507003903 46 46 0.0 2.0 0.00 0.00 0.00 76 1014.9
20260507002904 47 46 0.0 0.0 0.00 0.00 0.00 75 1014.9
20260507002405 47 46 0.0 1.0 0.00 0.00 0.00 74 1014.9
20260507001904 47 46 0.0 1.0 0.00 0.00 0.00 73 1014.9
20260507001405 47 46 0.0 1.0 0.00 0.00 0.00 73 1015.0
20260507000905 48 44 1.0 2.0 0.00 0.00 0.00 73 1015.0
20260507000406 48 43 0.0 2.0 0.00 0.00 0.00 72 1015.0
20260506235903 48 43 0.0 2.0 0.00 0.00 0.00 72 1014.9
20260506235404 49 43 0.0 1.0 0.00 0.00 0.00 72 1014.9
20260506234404 49 43 0.0 0.0 0.00 0.00 0.00 70 1014.9
20260506233904 50 43 0.0 2.0 0.00 0.00 0.00 70 1014.9
20260506233403 50 43 1.0 3.0 0.00 0.00 0.00 70 1014.9
20260506232904 50 43 2.0 3.0 0.00 0.00 0.00 70 1014.9
20260506232404 50 20 2.0 3.0 0.00 0.00 0.00 70 1014.9
20260506231904 51 20 1.0 3.0 0.00 0.00 0.00 69 1014.8
20260506231404 51 20 2.0 3.0 0.00 0.00 0.00 68 1014.8
20260506230403 52 18 1.0 3.0 0.00 0.00 0.00 67 1014.8
20260506225904 52 28 2.0 3.0 0.00 0.00 0.00 67 1014.7
20260506225405 52 31 2.0 5.0 0.00 0.00 0.00 66 1014.7
20260506224903 52 49 1.0 3.0 0.00 0.00 0.00 66 1014.7
20260506224403 52 40 2.0 6.0 0.00 0.00 0.00 65 1014.7
20260506223905 53 37 3.0 6.0 0.00 0.00 0.00 65 1014.6
20260506223403 53 30 2.0 3.0 0.00 0.00 0.00 64 1014.6
20260506222904 53 44 1.0 6.0 0.00 0.00 0.00 64 1014.6
20260506222404 53 42 3.0 6.0 0.00 0.00 0.00 65 1014.6
20260506221904 53 35 1.0 3.0 0.00 0.00 0.00 64 1014.6
20260506221404 53 35 1.0 3.0 0.00 0.00 0.00 64 1014.6
20260506220904 53 35 3.0 6.0 0.00 0.00 0.00 63 1014.6
20260506220403 53 56 2.0 5.0 0.00 0.00 0.00 62 1014.5
20260506215905 54 31 2.0 6.0 0.00 0.00 0.00 62 1014.5
20260506215404 53 54 3.0 8.0 0.00 0.00 0.00 62 1014.4
20260506214903 53 49 3.0 6.0 0.00 0.00 0.00 63 1014.4
20260506213904 54 38 1.0 3.0 0.00 0.00 0.00 64 1014.5
20260506213403 54 38 1.0 3.0 0.00 0.00 0.00 64 1014.5
20260506212904 54 22 2.0 3.0 0.00 0.00 0.00 64 1014.5
20260506212403 54 29 1.0 5.0 0.00 0.00 0.00 64 1014.5
20260506211403 54 36 2.0 6.0 0.00 0.00 0.00 64 1014.4
20260506210904 54 33 2.0 6.0 0.00 0.00 0.00 64 1014.3
20260506210404 54 33 3.0 6.0 0.00 0.00 0.00 64 1014.4
20260506205903 54 34 3.0 7.0 0.00 0.00 0.00 64 1014.4
20260506204404 55 21 2.0 3.0 0.00 0.00 0.00 62 1014.2
20260506203903 55 48 2.0 3.0 0.00 0.00 0.00 62 1014.2
20260506203403 55 34 2.0 3.0 0.00 0.00 0.00 61 1014.2
20260506202404 55 29 2.0 6.0 0.00 0.00 0.00 60 1014.0
20260506201905 55 59 2.0 5.0 0.00 0.00 0.00 60 1014.0
20260506201403 55 60 1.0 3.0 0.00 0.00 0.00 60 1014.0
20260506200905 55 47 3.0 6.0 0.00 0.00 0.00 59 1014.0
20260506200404 55 61 3.0 7.0 0.00 0.00 0.00 59 1013.9
20260506195905 55 51 1.0 3.0 0.00 0.00 0.00 57 1013.8
20260506195404 56 41 3.0 7.0 0.00 0.00 0.00 56 1013.8
20260506194904 56 49 3.0 6.0 0.00 0.00 0.00 56 1013.8
20260506194404 56 3 3.0 9.0 0.00 0.00 0.00 55 1013.8
20260506193903 56 21 2.0 5.0 0.00 0.00 0.00 55 1013.7
20260506193404 56 14 2.0 5.0 0.00 0.00 0.00 54 1013.6
20260506192903 56 30 2.0 8.0 0.00 0.00 0.00 54 1013.5
20260506192403 56 42 5.0 8.0 0.00 0.00 0.00 54 1013.5
20260506190905 56 5 5.0 8.0 0.00 0.00 0.00 55 1013.4
20260506190404 56 35 3.0 8.0 0.00 0.00 0.00 54 1013.4
20260506185904 56 30 3.0 8.0 0.00 0.00 0.00 55 1013.3
20260506185405 57 14 5.0 9.0 0.00 0.00 0.00 54 1013.3
20260506184903 57 24 4.0 7.0 0.00 0.00 0.00 53 1013.3
20260506183903 57 20 3.0 6.0 0.00 0.00 0.00 52 1013.2
20260506182904 57 35 3.0 8.0 0.00 0.00 0.00 54 1013.2
20260506182404 57 31 5.0 10.0 0.00 0.00 0.00 54 1013.1